Torna al catalogo

COSMOS 1247 DEB

LostHEO
NORAD 28270·DEBRIS·🇷🇺 Russia

Lanciato Feb 19, 1981 da Plesetsk Cosmodrome

Loading…

Prossimi Passaggi (prossime 24 ore)

TLE

ObsoletoSource: Space-Track

Epoca: Jun 15, 2026, 11:48 UTC

1 28270U 81016L   26166.49216503 -.00000830  00000-0  00000-0 0  9998
2 28270  69.1287 359.1270 6238986 340.9821   3.4570  2.02474798186074

Traccia COSMOS 1247 DEB in tempo reale con AllMySat

Download on the App Store